TimeEDT,TemperatureF,Dew PointF,Humidity,Sea Level PressureIn,VisibilityMPH,Wind Direction,Wind SpeedMPH,Gust SpeedMPH,PrecipitationIn,Events,Conditions,WindDirDegrees,DateUTC
12:15 AM,62.6,55.4,77,29.77,10.0,North,-9999.0,-,N/A,,Scattered Clouds,0,2013-06-15 04:15:00
12:35 AM,60.8,55.4,82,29.78,10.0,North,-9999.0,-,N/A,,Clear,0,2013-06-15 04:35:00
12:55 AM,59.0,55.4,88,29.78,10.0,North,-9999.0,-,N/A,,Clear,0,2013-06-15 04:55:00
1:15 AM,59.0,55.4,88,29.78,10.0,North,-9999.0,-,N/A,,Clear,0,2013-06-15 05:15:00
1:35 AM,57.2,55.4,94,29.79,10.0,North,-9999.0,-,N/A,,Clear,0,2013-06-15 05:35:00
1:55 AM,57.2,55.4,94,29.79,10.0,North,-9999.0,-,N/A,,Clear,0,2013-06-15 05:55:00
2:15 AM,55.4,55.4,100,29.79,10.0,North,-9999.0,-,N/A,,Clear,0,2013-06-15 06:15:00
2:35 AM,57.2,55.4,94,29.79,10.0,North,-9999.0,-,N/A,,Clear,0,2013-06-15 06:35:00
2:55 AM,57.2,53.6,88,29.80,10.0,North,-9999.0,-,N/A,,Clear,0,2013-06-15 06:55:00
3:35 AM,57.2,53.6,88,29.81,10.0,North,-9999.0,-,N/A,,Clear,0,2013-06-15 07:35:00
4:15 AM,55.4,53.6,94,29.82,10.0,North,-9999.0,-,N/A,,Clear,0,2013-06-15 08:15:00
4:35 AM,57.2,53.6,88,29.83,10.0,North,-9999.0,-,N/A,,Clear,0,2013-06-15 08:35:00
4:55 AM,57.2,53.6,88,29.83,10.0,North,-9999.0,-,N/A,,Clear,0,2013-06-15 08:55:00
5:15 AM,60.8,51.8,72,29.84,10.0,North,-9999.0,-,N/A,,Clear,0,2013-06-15 09:15:00
5:35 AM,60.8,51.8,72,29.85,10.0,North,-9999.0,-,N/A,,Clear,0,2013-06-15 09:35:00
5:55 AM,62.6,51.8,68,29.86,10.0,North,-9999.0,-,N/A,,Clear,0,2013-06-15 09:55:00
6:15 AM,62.6,50.0,63,29.87,10.0,North,-9999.0,-,N/A,,Clear,0,2013-06-15 10:15:00
6:35 AM,64.4,48.2,56,29.88,10.0,North,-9999.0,-,N/A,,Clear,0,2013-06-15 10:35:00
6:55 AM,64.4,48.2,56,29.88,10.0,North,-9999.0,-,N/A,,Clear,0,2013-06-15 10:55:00
7:15 AM,66.2,48.2,52,29.88,10.0,North,-9999.0,-,N/A,,Clear,0,2013-06-15 11:15:00
7:35 AM,66.2,48.2,52,29.89,10.0,North,-9999.0,-,N/A,,Clear,0,2013-06-15 11:35:00
7:55 AM,68.0,48.2,49,29.89,10.0,North,-9999.0,-,N/A,,Clear,0,2013-06-15 11:55:00
8:15 AM,69.8,48.2,46,29.90,10.0,North,-9999.0,-,N/A,,Clear,0,2013-06-15 12:15:00
8:35 AM,69.8,48.2,46,29.90,10.0,North,-9999.0,-,N/A,,Clear,0,2013-06-15 12:35:00
8:55 AM,69.8,46.4,43,29.91,10.0,North,-9999.0,-,N/A,,Clear,0,2013-06-15 12:55:00
9:15 AM,71.6,46.4,41,29.92,10.0,North,-9999.0,-,N/A,,Clear,0,2013-06-15 13:15:00
9:35 AM,71.6,46.4,41,29.92,10.0,North,-9999.0,-,N/A,,Clear,0,2013-06-15 13:35:00
9:55 AM,71.6,44.6,38,29.93,10.0,North,-9999.0,-,N/A,,Clear,0,2013-06-15 13:55:00
10:15 AM,73.4,42.8,33,29.93,-9999.0,North,-9999.0,-,0.03,,Unknown,0,2013-06-15 14:15:00
10:35 AM,73.4,48.2,41,-9999,10.0,North,-9999.0,-,0.03,,Clear,0,2013-06-15 14:35:00
10:55 AM,73.4,48.2,41,29.93,10.0,North,-9999.0,-,0.03,,Unknown,0,2013-06-15 14:55:00
11:15 AM,73.4,48.2,41,29.93,10.0,North,-9999.0,-,N/A,,Clear,0,2013-06-15 15:15:00
11:35 AM,73.4,46.4,38,29.93,10.0,North,-9999.0,-,N/A,,Clear,0,2013-06-15 15:35:00
11:55 AM,75.2,44.6,34,29.92,10.0,North,-9999.0,-,N/A,,Clear,0,2013-06-15 15:55:00
12:15 PM,73.4,44.6,36,29.92,10.0,North,-9999.0,-,N/A,,Clear,0,2013-06-15 16:15:00
12:35 PM,75.2,44.6,34,29.92,10.0,North,-9999.0,-,N/A,,Clear,0,2013-06-15 16:35:00
12:55 PM,75.2,44.6,34,29.92,10.0,North,-9999.0,-,N/A,,Clear,0,2013-06-15 16:55:00
1:15 PM,75.2,46.4,36,29.92,10.0,North,-9999.0,-,N/A,,Clear,0,2013-06-15 17:15:00
1:35 PM,75.2,44.6,34,29.92,10.0,North,-9999.0,-,N/A,,Clear,0,2013-06-15 17:35:00
1:55 PM,75.2,44.6,34,29.92,10.0,North,-9999.0,-,N/A,,Clear,0,2013-06-15 17:55:00
2:15 PM,73.4,46.4,38,29.91,10.0,North,-9999.0,-,N/A,,Clear,0,2013-06-15 18:15:00
2:35 PM,75.2,42.8,31,29.91,10.0,North,-9999.0,-,N/A,,Clear,0,2013-06-15 18:35:00
2:55 PM,75.2,44.6,34,29.91,10.0,North,-9999.0,-,N/A,,Clear,0,2013-06-15 18:55:00
3:15 PM,75.2,42.8,31,29.91,10.0,North,-9999.0,-,N/A,,Clear,0,2013-06-15 19:15:00
3:35 PM,71.6,48.2,43,29.91,10.0,North,-9999.0,-,N/A,,Clear,0,2013-06-15 19:35:00
3:55 PM,71.6,48.2,43,29.90,10.0,North,-9999.0,-,N/A,,Clear,0,2013-06-15 19:55:00
4:15 PM,71.6,46.4,41,29.90,10.0,North,-9999.0,-,N/A,,Clear,0,2013-06-15 20:15:00
4:35 PM,71.6,46.4,41,29.90,10.0,North,-9999.0,-,N/A,,Clear,0,2013-06-15 20:35:00
4:55 PM,71.6,44.6,38,29.90,10.0,North,-9999.0,-,N/A,,Clear,0,2013-06-15 20:55:00
5:15 PM,71.6,44.6,38,29.90,10.0,North,-9999.0,-,N/A,,Clear,0,2013-06-15 21:15:00
5:35 PM,71.6,44.6,38,29.89,10.0,North,-9999.0,-,N/A,,Clear,0,2013-06-15 21:35:00
5:55 PM,71.6,48.2,43,29.90,10.0,North,-9999.0,-,N/A,,Clear,0,2013-06-15 21:55:00
6:15 PM,71.6,50.0,46,29.90,10.0,North,-9999.0,-,N/A,,Clear,0,2013-06-15 22:15:00
6:35 PM,69.8,51.8,53,29.90,10.0,North,-9999.0,-,N/A,,Clear,0,2013-06-15 22:35:00
6:55 PM,69.8,53.6,56,29.90,10.0,North,-9999.0,-,N/A,,Clear,0,2013-06-15 22:55:00
7:15 PM,68.0,53.6,60,29.90,10.0,North,-9999.0,-,N/A,,Clear,0,2013-06-15 23:15:00
7:35 PM,66.2,53.6,64,29.90,10.0,North,-9999.0,-,N/A,,Clear,0,2013-06-15 23:35:00
7:55 PM,66.2,55.4,68,29.91,10.0,North,-9999.0,-,N/A,,Clear,0,2013-06-15 23:55:00
8:15 PM,64.4,55.4,73,29.91,10.0,North,-9999.0,-,N/A,,Clear,0,2013-06-16 00:15:00
8:35 PM,60.8,55.4,82,29.91,10.0,North,-9999.0,-,N/A,,Clear,0,2013-06-16 00:35:00
8:55 PM,60.8,55.4,82,29.92,10.0,North,-9999.0,-,N/A,,Clear,0,2013-06-16 00:55:00
9:15 PM,60.8,55.4,82,29.93,10.0,North,-9999.0,-,N/A,,Clear,0,2013-06-16 01:15:00
9:35 PM,59.0,55.4,88,29.94,10.0,North,-9999.0,-,N/A,,Clear,0,2013-06-16 01:35:00
9:55 PM,57.2,55.4,94,29.94,10.0,North,-9999.0,-,N/A,,Clear,0,2013-06-16 01:55:00
10:15 PM,57.2,55.4,94,29.94,10.0,North,-9999.0,-,N/A,,Clear,0,2013-06-16 02:15:00
10:35 PM,57.2,55.4,94,29.94,10.0,North,-9999.0,-,N/A,,Clear,0,2013-06-16 02:35:00
10:55 PM,57.2,55.4,94,29.95,10.0,North,-9999.0,-,N/A,,Clear,0,2013-06-16 02:55:00
11:15 PM,57.2,53.6,88,29.95,10.0,North,-9999.0,-,N/A,,Clear,0,2013-06-16 03:15:00